Regional Weather Roundup
Issued by NWS Green Bay, WI

Home | Current Version | Previous Version | Graphics & Text | Print | Product List | Glossary Off
Versions: 1 2 3 4 5 6 7 8 9 10 11 12 13 14 15 16 17 18 19 20 21 22 23 24 25 26 27 28 29 30 31 32 33 34 35 36 37 38 39 40 41 42 43 44 45 46 47 48 49 50

000
ASUS43 KGRB 240200
RWRGRB

NORTH-CENTRAL AND NORTHEAST WISCONSIN REGIONAL WEATHER ROUNDUP
NATIONAL WEATHER SERVICE GREEN BAY WI
900 PM CDT FRI JUN 23 2017

WIZ005-009-010>012-018-019-240300-
NORTH CENTRAL WISCONSIN

CITY           SKY/WX    TMP DP  RH WIND       PRES   REMARKS
IRONWOOD       MOCLDY    58  51  78 W3        29.76R
MANITOWISH WTR NOT AVBL
ARBOR VITAE    NOT AVBL
EAGLE RIVER    NOT AVBL
LAND O LAKES   PTCLDY    60  47  62 W5        29.78R
RHINELANDER    MOCLDY    56  51  84 W3        29.78R
PHILLIPS       NOT AVBL
ANTIGO         NOT AVBL
TOMAHAWK       NOT AVBL
MERRILL        CLEAR     62  51  69 W7        29.79R
$$

WIZ013-073-240300-
NORTHEAST WISCONSIN

CITY           SKY/WX    TMP DP  RH WIND       PRES   REMARKS
IRON MOUNTAIN  PTCLDY    63  45  51 NW5       29.71R
MARINETTE      PTCLDY    66  50  56 CALM      29.71R
$$

WIZ017-030-035>037-045-240300-
CENTRAL WISCONSIN

CITY           SKY/WX    TMP DP  RH WIND       PRES   REMARKS
MEDFORD        NOT AVBL
WAUSAU         CLOUDY    62  52  69 W14       29.77R
MOSINEE        MOCLDY    63  54  72 NW8       29.79R
MARSHFIELD     CLEAR     61  51  70 W6        29.79R
WISC RAPIDS    CLEAR     64  52  64 W6        29.80R
STEVENS POINT  NOT AVBL
WAUPACA        PTCLDY    68  53  59 W6        29.76R
SHAWANO        NOT AVBL
CLINTONVILLE   NOT AVBL
WAUTOMA        PTCLDY    64  54  69 W7        29.78R
$$

WIZ038-039-048-051-240300-
FOX VALLEY

CITY           SKY/WX    TMP DP  RH WIND       PRES   REMARKS
NWS GREEN BAY  PTCLDY    66  55  67 W8        29.73R
APPLETON       MOCLDY    64  52  63 W8        29.74R
OSHKOSH        CLEAR     65  52  62 W6        29.75R
FOND DU LAC    CLEAR     65  52  62 NW9       29.77R
$$

WIZ022-050-052-240300-
EAST CENTRAL WISCONSIN

CITY           SKY/WX    TMP DP  RH WIND       PRES   REMARKS
EPHRAIM        NOT AVBL
WASHINGTON ISL NOT AVBL
STURGEON BAY     N/A     67  54  63 W10         N/A
MANITOWOC      NOT AVBL
SHEBOYGAN      PTCLDY    67  56  67 W7        29.74R
$$

LMZ563-521-522-541>543-240300-
LAKESHORE

STATION/POSITION TIME  TEMP    WIND        PRES    VSBY  WAVE
                       AIR SEA DIR/SP/G                  HT/PER
                 (UTC) (F)     (DEG/KT/KT) (MB)    (MI)  (FT/S)
SHEBOYGAN LKSHOR 0100   71     300/ 12/ 14 1005.8R
KEWAUNEE LKSHORE 0130   69     290/  4/  8 1005.6R
NORTHPORT PIER   0140   67     290/  4/  8 1005.1R
N MID LAKE BUOY  0050   61 58   20/  6/  8 1005.1R         1
S GREEN BAY BUOY 0130   69     290/ 12/ 14 1005.6R
CHAMBERS ISLAND  0130   68     300/  5/  9 1005.1R
MENOMINEE LKSHOR 0130          290/  8/ 10 1004.8R
$$



USA.gov is the U.S. government's official web portal to all federal, state and local government web resources and services.